HORIZONS-3E

Last updated on Sat Aug 15 2026 00:03:01 GMT+0000 (Coordinated Universal Time)

1 43633U 18074B 26225.60331822 -.00000048 00000+0 00000+0 0 9992 2 43633 0.0372 269.6792 0000300 270.7570 167.7611 1.00269322 28919
UTC large
Height (km)
Speed (km/s)
/
Latitude / Longitude
Inclination (degrees)
Orbital Period (minutes)
Azimuth
Elevation
Range (km)
Doppler Factor

Next 0 passes for location: London (51.5072 / 0.1276)

No passes found over London.
HORIZONS-3E